Meridian, MS

2:32 PM CST on February 19, 2017 (GMT -0600)
Meridian Naval Air Station

Weather History for KNMM - March, 2012

Change the Weather History Date:

Saturday, March 3, 2012

  Actual Average Record
Temperature  
Mean Temperature 52 °F -  
Max Temperature 64 °F 61 °F 77 °F (2008)
Min Temperature 39 °F 41 °F 27 °F (2009)
Degree Days  
Heating Degree Days 12    
Growing Degree Days 2 (Base 50)    
Moisture  
Dew Point 38 °F    
Average Humidity 63    
Maximum Humidity 88    
Minimum Humidity 30    
Precipitation  
Precipitation 0.14 in - - ()
Sea Level Pressure  
Sea Level Pressure 29.92 in    
Wind  
Wind Speed 8 mph (NNW)    
Max Wind Speed 21 mph    
Max Gust Speed 34 mph    
Visibility 10 miles    
Events Rain , Thunderstorm    
Averages and records for this station are not official NWS values.
T = Trace of Precipitation, MM = Missing Value Source: NWS Daily Summary

Daily Weather History Graph

Daily Weather History Graph

Search for Another Location

Airport or City:

Trip Planner

Search our weather history database for the weather conditions in past years. The results will help you decide how hot, cold, wet, or windy it might be!

Date:

Astronomy

Mar. 03, 2012 Rise Set
Actual Time 6:18 AM CST 5:53 PM CST
Civil Twilight 5:54 AM CST 6:18 PM CST
Nautical Twilight 5:25 AM CST 6:46 PM CST
Astronomical Twilight 4:57 AM CST 7:15 PM CST
Moon 1:16 PM CST (3/3) 2:42 AM CST (3/3)
Length of Visible Light 12h 23m
Length of Day
11h 34m
Waxing Gibbous, 75% of the Moon is Illuminated
Mar 3
Waxing Gibbous
Mar 8
Full
Mar 14
Last Quarter
Mar 22
New
Mar 30
First Quarter

Hourly Weather History & Observations

Time (CST) Temp. Windchill Dew Point Humidity Pressure Visibility Wind Dir Wind Speed Gust Speed Precip Events Conditions
12:23 AM 64.4 °F - 60.8 °F 88% 29.71 in 10.0 mi Calm Calm - 0.00 in Rain Light Rain
12:30 AM 64.4 °F - 60.8 °F 88% 29.75 in 10.0 mi NW 20.7 mph 34.5 mph 0.01 in Rain , Thunderstorm Light Thunderstorms and Rain
12:46 AM 59.0 °F - 51.8 °F 77% 29.78 in 10.0 mi North 15.0 mph 32.2 mph 0.01 in Thunderstorm Thunderstorm
12:56 AM 57.9 °F - 53.1 °F 84% 29.81 in 10.0 mi North 9.2 mph - 0.01 in Rain , Thunderstorm Light Thunderstorms and Rain
1:01 AM 57.2 °F - 53.6 °F 88% 29.79 in 10.0 mi North 8.1 mph - 0.00 in Rain , Thunderstorm Light Thunderstorms and Rain
1:32 AM 55.4 °F - 51.8 °F 88% 29.81 in 5.0 mi North 6.9 mph - 0.06 in Rain Rain
1:56 AM 55.0 °F - 46.9 °F 74% 29.85 in 10.0 mi North 13.8 mph 17.3 mph 0.09 in Rain Light Rain
2:56 AM 53.1 °F - 43.0 °F 69% 29.85 in 10.0 mi North 6.9 mph - 0.00 in   Overcast
3:56 AM 52.0 °F - 42.1 °F 69% 29.87 in 10.0 mi NNW 8.1 mph - 0.01 in   Mostly Cloudy
4:56 AM 51.1 °F - 41.0 °F 68% 29.87 in 10.0 mi North 5.8 mph - 0.00 in Rain Light Rain
5:56 AM 48.9 °F - 42.1 °F 77% 29.92 in 10.0 mi NW 9.2 mph - 0.00 in Rain Light Rain
6:56 AM 48.0 °F - 39.0 °F 71% 29.93 in 10.0 mi North 12.7 mph 16.1 mph 0.02 in   Mostly Cloudy
7:56 AM 48.0 °F - 35.1 °F 61% 29.97 in 10.0 mi North 11.5 mph - N/A   Mostly Cloudy
8:56 AM 48.9 °F - 34.0 °F 56% 30.04 in 10.0 mi NNW 8.1 mph - N/A   Overcast
9:56 AM 48.9 °F - 33.1 °F 54% 29.97 in 10.0 mi North 11.5 mph 18.4 mph 0.00 in   Overcast
10:56 AM 50.0 °F - 30.9 °F 48% 29.98 in 10.0 mi North 9.2 mph - N/A   Scattered Clouds
11:56 AM 50.0 °F - 30.0 °F 46% 29.97 in 10.0 mi North 6.9 mph - 0.00 in Rain Light Rain
12:56 PM 53.1 °F - 30.0 °F 41% 29.95 in 10.0 mi North 8.1 mph - 0.01 in   Overcast
1:56 PM 57.0 °F - 28.0 °F 33% 29.94 in 10.0 mi NNW 16.1 mph 19.6 mph N/A   Mostly Cloudy
2:56 PM 55.0 °F - 24.1 °F 30% 29.91 in 10.0 mi North 10.4 mph 21.9 mph N/A   Mostly Cloudy
3:56 PM 55.0 °F - 28.9 °F 37% 29.92 in 10.0 mi NNW 6.9 mph - N/A   Overcast
4:56 PM 54.0 °F - 30.0 °F 40% 29.94 in 10.0 mi NNW 4.6 mph - N/A   Overcast
5:56 PM 53.1 °F - 30.9 °F 43% 29.95 in 10.0 mi NNW 8.1 mph - N/A   Scattered Clouds
6:56 PM 50.0 °F - 30.0 °F 46% 29.96 in 10.0 mi NNW 6.9 mph - N/A   Clear
7:56 PM 48.9 °F - 32.0 °F 52% 29.99 in 10.0 mi NW 5.8 mph - N/A   Clear
8:56 PM 45.0 °F 43.5 °F 33.1 °F 63% 30.02 in 10.0 mi WNW 3.5 mph - N/A   Mostly Cloudy
9:56 PM 43.0 °F - 33.1 °F 68% 30.03 in 10.0 mi Calm Calm - N/A   Partly Cloudy
10:56 PM 41.0 °F - 33.1 °F 73% 30.04 in 10.0 mi Calm Calm - N/A   Clear
11:56 PM 39.0 °F 34.0 °F 34.0 °F 82% 30.05 in 10.0 mi NW 6.9 mph - N/A   Clear